This demonstration page uses our WeatherBlox Daily Observations layout. Learn more.

Hourly Observations for August 6, 2017

Temp ( °F °C ) Dew Point ( °F °C ) Humidity (%) Winds ( mph kmh ) Pressure ( in mb ) Visibility ( mi km ) Precip ( " mm )
12:54 am 00:54 Cloudy 65 18.3 61 16.1 87 87 E 6 9 29.95 1014 10 16.0934 0 0
1:11 am 01:11 Cloudy 65 18.3 61 16.1 87 87 E 7 11 29.94 1014 10 16.0934 0 0
1:28 am 01:28 Cloudy 65 18.3 61 16.1 87 87 E 7 11 29.94 1014 10 16.0934 0 0
1:54 am 01:54 Cloudy 65 18.3 61 16.1 87 87 E 6 9 29.94 1014 10 16.0934 0 0
2:15 am 02:15 Cloudy 65 18.3 61 16.1 87 87 E 6 9 29.94 1014 10 16.0934 0 0
2:54 am 02:54 Cloudy 65 18.3 61 16.1 87 87 NE 5 7 29.93 1014 10 16.0934 0 0
3:19 am 03:19 Cloudy with Mist and Fog 65 18.3 62 16.7 90 90 NE 6 9 29.91 1013 6 9.65604 0 0
3:54 am 03:54 Cloudy 64 17.8 61 16.1 90 90 E 7 11 29.93 1013 9 14.48406 0 0
4:54 am 04:54 Cloudy with Mist and Fog 64 17.8 62 16.7 93 93 ENE 6 9 29.93 1014 3 4.82802 0 0
5:03 am 05:03 Cloudy with Mist and Fog 64 17.8 62 16.7 93 93 ENE 5 7 29.91 1013 2.5 4.02335 0 0
5:05 am 05:05 Cloudy with Mist and Fog 64 17.8 62 16.7 93 93 ENE 6 9 29.91 1013 3 4.82802 0 0
5:27 am 05:27 Cloudy with Mist and Fog 64 17.8 62 16.7 93 93 E 5 7 29.91 1013 3 4.82802 0 0
5:54 am 05:54 Cloudy with Mist and Fog 63 17.2 62 16.7 97 97 ENE 6 9 29.93 1014 2.5 4.02335 0 0
6:07 am 06:07 Cloudy with Mist and Fog 64 17.8 62 16.7 93 93 E 7 11 29.91 1013 4 6.43736 0 0
6:28 am 06:28 Cloudy with Mist and Fog 64 17.8 62 16.7 93 93 NE 6 9 29.94 1014 5 8.0467 0 0
6:35 am 06:35 Cloudy with Mist and Fog 64 17.8 62 16.7 93 93 NE 6 9 29.94 1014 2.5 4.02335 0 0
6:54 am 06:54 Cloudy with Mist and Fog 63 17.2 62 16.7 97 97 NE 7 11 29.95 1014 2.5 4.02335 0 0
7:13 am 07:13 Cloudy with Mist and Fog 63 17.2 62 16.7 97 97 NNE 7 11 29.94 1014 1.75 2.816345 0 0
7:36 am 07:36 Cloudy with Mist and Fog 64 17.8 62 16.7 93 93 NE 6 9 29.94 1014 1.75 2.816345 0 0
7:43 am 07:43 Cloudy with Mist and Fog 64 17.8 62 16.7 93 93 NNE 6 9 29.94 1014 1.75 2.816345 0 0
7:54 am 07:54 Cloudy with Mist and Fog 64 17.8 62 16.7 93 93 NNE 7 11 29.96 1015 1.75 2.816345 0 0
7:59 am 07:59 Cloudy 64 17.8 62 16.7 93 93 NNE 7 11 29.94 1014 7 11.26538 0 0
8:09 am 08:09 Cloudy with Mist and Fog 64 17.8 62 16.7 93 93 NNE 8 13 29.94 1014 3 4.82802 0 0
8:16 am 08:16 Cloudy with Mist and Fog 64 17.8 62 16.7 93 93 NNE 7 11 29.94 1014 3 4.82802 0 0
8:26 am 08:26 Cloudy with Mist and Fog 64 17.8 62 16.7 93 93 NNE 8 13 29.97 1015 3 4.82802 0 0
8:38 am 08:38 Cloudy with Mist and Fog 65 18.3 63 17.2 93 93 NE 7 11 29.97 1015 3 4.82802 0 0
8:54 am 08:54 Cloudy with Mist and Fog 65 18.3 62 16.7 90 90 NNE 9 15 29.97 1015 3 4.82802 0 0
9:54 am 09:54 Cloudy 66 18.9 62 16.7 87 87 NE 9 15 29.98 1015 10 16.0934 0 0
10:54 am 10:54 Cloudy with Mist and Fog 66 18.9 62 16.7 87 87 ENE 9 15 29.99 1016 6 9.65604 0 0
11:54 am 11:54 Cloudy 67 19.4 61 16.1 81 81 ENE 7 11 30 1016 8 12.87472 0 0
12:17 pm 12:17 Cloudy 69 20.6 61 16.1 76 76 NE 9 15 29.97 1015 8 12.87472 0 0
12:44 pm 12:44 Cloudy 68 20 61 16.1 78 78 NE 7 11 29.97 1015 7 11.26538 0 0
12:54 pm 12:54 Cloudy 70 21.1 62 16.7 76 76 N 7 11 29.99 1016 7 11.26538 0 0
1:03 pm 13:03 Cloudy 70 21.1 61 16.1 73 73 NE 8 13 30 1016 7 11.26538 0 0
1:50 pm 13:50 Cloudy 72 22 63 17 73 73 NNE 6 9 30 1016 7 11.26538 0 0
1:54 pm 13:54 Cloudy 71 21.7 62 16.7 73 73 N 8 13 29.99 1016 8 12.87472 0 0
2:54 pm 14:54 Cloudy 72 22.2 62 16.7 71 71 N 9 15 30 1016 8 12.87472 0 0
3:54 pm 15:54 Cloudy 72 22.2 62 16.7 71 71 NW 7 11 30 1016 10 16.0934 0 0
4:54 pm 16:54 Cloudy 73 22.8 61 16.1 66 66 NW 7 11 29.99 1016 10 16.0934 0 0
5:54 pm 17:54 Sunny 75 23.9 62 16.7 64 64 NW 6 9 29.98 1015 10 16.0934 0 0
6:54 pm 18:54 Mostly Sunny 74 23.3 62 16.7 67 67 N 8 13 29.97 1015 10 16.0934 0 0
7:54 pm 19:54 Cloudy 73 22.8 62 16.7 69 69 NNW 8 13 29.98 1015 10 16.0934 0 0
8:54 pm 20:54 Clear 70 21.1 63 17.2 79 79 NNW 6 9 30 1016 10 16.0934 0 0
9:54 pm 21:54 Mostly Clear 65 18.3 63 17.2 93 93 NNW 6 9 30.02 1017 10 16.0934 0 0
10:54 pm 22:54 Mostly Cloudy 67 19.4 63 17.2 87 87 NNW 7 11 30.05 1018 10 16.0934 0 0
11:54 pm 23:54 Clear 64 17.8 62 16.7 93 93 Calm 30.04 1017 10 16.0934 0 0

Powered by AerisWeather